Keahole Point, HI

3:17 AM HST on April 25, 2017 (GMT -1000)
Kona International At Keahole

Weather History for PHKO - February, 2014

Change the Weather History Date:

Saturday, February 8, 2014

  Actual Average Record
Temperature  
Mean Temperature 77 °F -  
Max Temperature 82 °F 79 °F 86 °F (1981)
Min Temperature 72 °F 66 °F 62 °F (2016)
Cooling Degree Days 12    
Growing Degree Days 27 (Base 50)    
Moisture  
Dew Point 69 °F    
Average Humidity 76    
Maximum Humidity 84    
Minimum Humidity 67    
Precipitation  
Precipitation 0.00 in - - ()
Sea Level Pressure  
Sea Level Pressure 29.91 in    
Wind  
Wind Speed 4 mph (SSW)    
Max Wind Speed 10 mph    
Max Gust Speed -    
Visibility 10 miles    
Events      
Averages and records for this station are not official NWS values.
T = Trace of Precipitation, MM = Missing Value Source: NWS Daily Summary

Daily Weather History Graph

Daily Weather History Graph

Search for Another Location

Airport or City:

Trip Planner

Search our weather history database for the weather conditions in past years. The results will help you decide how hot, cold, wet, or windy it might be!

Date:

Astronomy

Feb. 08, 2014 Rise Set
Actual Time 6:56 AM HST 6:20 PM HST
Civil Twilight 6:33 AM HST 6:43 PM HST
Nautical Twilight 6:07 AM HST 7:09 PM HST
Astronomical Twilight 5:41 AM HST 7:35 PM HST
Moon 1:34 PM HST (2/8) 2:08 AM HST (2/8)
Length of Visible Light 12h 09m
Length of Day
11h 23m
Waxing Gibbous, 70% of the Moon is Illuminated
Feb 8
Waxing Gibbous
Feb 14
Full
Feb 22
Last Quarter
Feb 28
New
Mar 8
First Quarter

Hourly Weather History & Observations

Time (HST) Temp. Heat Index Dew Point Humidity Pressure Visibility Wind Dir Wind Speed Gust Speed Precip Events Conditions
12:30 AM 73.4 °F - 68.0 °F 83% 29.90 in 10.0 mi East 3.5 mph - N/A   Mostly Cloudy
12:53 AM 75.0 °F - 68.0 °F 79% 29.90 in 10.0 mi Calm Calm - N/A   Partly Cloudy
1:40 AM 75.2 °F - 69.8 °F 83% 29.90 in 10.0 mi SE 3.5 mph - N/A   Overcast
1:53 AM 75.0 °F - 69.1 °F 82% 29.90 in 10.0 mi ESE 4.6 mph - N/A   Overcast
2:37 AM 73.4 °F - 68.0 °F 83% 29.89 in 10.0 mi ENE 3.5 mph - N/A   Scattered Clouds
2:53 AM 73.0 °F - 68.0 °F 84% 29.89 in 10.0 mi East 3.5 mph - N/A   Scattered Clouds
3:53 AM 72.0 °F - 66.9 °F 84% 29.88 in 10.0 mi ENE 3.5 mph - N/A   Clear
4:53 AM 72.0 °F - 66.0 °F 81% 29.88 in 10.0 mi East 3.5 mph - N/A   Clear
5:53 AM 72.0 °F - 66.9 °F 84% 29.91 in 10.0 mi East 3.5 mph - N/A   Clear
6:53 AM 72.0 °F - 66.0 °F 81% 29.92 in 10.0 mi East 3.5 mph - N/A   Clear
7:53 AM 73.0 °F - 66.9 °F 81% 29.92 in 10.0 mi ESE 4.6 mph - N/A   Clear
8:53 AM 77.0 °F - 68.0 °F 74% 29.94 in 10.0 mi Calm Calm - N/A   Clear
9:17 AM 78.8 °F - 69.8 °F 74% 29.94 in 10.0 mi SSW 3.5 mph - N/A   Mostly Cloudy
9:26 AM 78.8 °F - 69.8 °F 74% 29.94 in 10.0 mi SW 4.6 mph - N/A   Scattered Clouds
9:53 AM 78.1 °F - 69.1 °F 74% 29.96 in 10.0 mi WSW 6.9 mph - N/A   Scattered Clouds
10:53 AM 80.1 °F 82.9 °F 69.1 °F 69% 29.96 in 10.0 mi SW 8.1 mph - N/A   Clear
11:53 AM 80.1 °F 82.9 °F 69.1 °F 69% 29.94 in 10.0 mi SW 9.2 mph - N/A   Clear
12:53 PM 81.0 °F 84.4 °F 70.0 °F 69% 29.92 in 10.0 mi West 9.2 mph - N/A   Clear
1:53 PM 82.0 °F 85.9 °F 70.0 °F 67% 29.90 in 10.0 mi West 9.2 mph - N/A   Clear
2:53 PM 82.0 °F 85.9 °F 70.0 °F 67% 29.88 in 10.0 mi West 10.4 mph - N/A   Clear
3:53 PM 81.0 °F 84.1 °F 69.1 °F 67% 29.87 in 10.0 mi West 8.1 mph - N/A   Clear
4:53 PM 80.1 °F 82.9 °F 69.1 °F 69% 29.88 in 10.0 mi West 9.2 mph - N/A   Clear
5:53 PM 79.0 °F - 69.1 °F 72% 29.89 in 10.0 mi West 6.9 mph - N/A   Clear
6:53 PM 78.1 °F - 69.1 °F 74% 29.91 in 10.0 mi West 5.8 mph - N/A   Clear
7:53 PM 77.0 °F - 69.1 °F 76% 29.93 in 10.0 mi NW 3.5 mph - N/A   Clear
8:53 PM 77.0 °F - 69.1 °F 76% 29.94 in 10.0 mi West 3.5 mph - N/A   Mostly Cloudy
9:53 PM 77.0 °F - 69.1 °F 76% 29.94 in 10.0 mi Calm Calm - N/A   Overcast
10:53 PM 77.0 °F - 69.1 °F 76% 29.94 in 10.0 mi Calm Calm - N/A   Overcast
11:53 PM 77.0 °F - 69.1 °F 76% 29.93 in 10.0 mi SSE 3.5 mph - N/A   Overcast